Flag for Ethiopia Weather past 2 weeks in Addis Ababa, Ethiopia

Now
61 °F

Mostly cloudy.


Feels Like: 61 °F
Forecast: 50 / 67 °F
Wind: 6 mph from Southwest

Location: Addis Ababa Airport

Current Time: Sep 2, 2014 at 10:44:06 AM

Latest Report: Sep 2, 2014 at 10:00 AM


Visibility: N/A

Pressure: 30.36 "Hg

Humidity: 72%

Dew point: 52 °F

Location of Addis AbabaLocation

Historic Weather in Addis Ababa — Graph

°F

Addis Ababa temperature yesterday

Maximum temperature yesterday: 66 °F (at 1:00 PM)
Minimum temperature yesterday: 59 °F (at 5:00 PM)
Average temperature yesterday: 62 °F

Past Weeks' High & Low Weather Summary

 TemperatureHumidityPressure
High72 °F (Aug 23, 1:00 PM)100% (Aug 25, 8:00 AM)30.45 "Hg (Aug 25, 8:00 AM)
Low52 °F (Aug 25, 8:00 AM)50% (Aug 24, 12:00 PM)30.18 "Hg (Aug 22, 8:00 AM)
Average61 °F78%30.31 "Hg
* Reported Aug 18 9:00 AM — Sep 2 9:00 AM, Addis Ababa, Weather by CustomWeather, © 2014

Note: Actual official high and low records may vary slightly from our data, if they occured in-between our weather recording intervals... More about our weather records

Advertising

Addis Ababa weather history for previous 24 hours

 ConditionsComfort  
Time TempWeatherWind HumidityBarometerVisibility
9:00 AM
Sep 2
59 °FMostly cloudy.7 mph72%30.36 "HgN/A
8:00 AM59 °FMostly cloudy.14 mph72%30.33 "HgN/A
7:00 AM57 °FMostly cloudy.3 mph94%30.33 "HgN/A
6:00 AM57 °FPassing clouds.5 mph94%30.30 "HgN/A
5:00 AM57 °FPassing clouds.5 mph94%30.27 "HgN/A
4:00 AM57 °FPassing clouds.5 mph88%30.27 "HgN/A
3:00 AM57 °FPassing clouds.8 mph88%30.27 "HgN/A
2:00 AM59 °FPassing clouds.2 mph82%30.27 "HgN/A
1:00 AM61 °FPassing clouds.No wind83%30.30 "HgN/A
12:00 AM59 °FPassing clouds.7 mph82%30.30 "HgN/A
11:00 PM
Sep 1
61 °FPassing clouds.5 mph83%30.33 "HgN/A
10:00 PM59 °FPassing clouds.2 mph82%30.30 "HgN/A
9:00 PM59 °FPassing clouds.No wind82%30.30 "HgN/A
8:00 PM61 °FPassing clouds.No wind83%30.27 "HgN/A
7:00 PM59 °FPassing clouds.7 mph88%30.24 "HgN/A
6:00 PM59 °FCool.7 mph88%30.24 "HgN/A
5:00 PM59 °FCool.5 mph88%30.27 "HgN/A
4:00 PM64 °FMild.7 mph78%30.24 "HgN/A
3:00 PM66 °FMild.7 mph68%30.24 "HgN/A
2:00 PM66 °FMild.9 mph68%30.24 "HgN/A
1:00 PM66 °FMild.9 mph73%30.27 "HgN/A
Weather by CustomWeather, © 2014

See weather overviewHow to use our weather pages